| time (UTC) | temp C | wind direction | speed KPH | gust KPH | rain 1hr cm | rain 24hr cm | rain mn cm | humidity % | barometer mb |
| 20260502181730 | 22 | 289 | 6.4 | 22.5 | 0.00 | 3.17 | 0.00 | 59 | 1019.7 |
| 20260502181227 | 22 | 52 | 4.8 | 22.5 | 0.00 | 3.20 | 0.00 | 60 | 1019.8 |
| 20260502180723 | 22 | 325 | 3.2 | 14.5 | 0.00 | 3.35 | 0.00 | 59 | 1019.8 |
| 20260502180718 | 22 | 67 | 4.8 | 16.1 | 0.00 | 3.73 | 0.00 | 56 | 1019.9 |
| 20260502170205 | 21 | 52 | 4.8 | 20.9 | 0.00 | 4.06 | 0.00 | 61 | 1020.4 |
| 20260502164207 | 20 | 41 | 6.4 | 17.7 | 0.00 | 4.09 | 0.00 | 64 | 1020.3 |
| 20260502163701 | 20 | 319 | 4.8 | 17.7 | 0.00 | 4.09 | 0.00 | 67 | 1020.2 |
| 20260502163159 | 20 | 338 | 4.8 | 14.5 | 0.00 | 4.11 | 0.00 | 66 | 1020.3 |
| 20260502162659 | 20 | 15 | 4.8 | 19.3 | 0.00 | 4.14 | 0.00 | 70 | 1020.2 |
| 20260502162201 | 20 | 355 | 4.8 | 19.3 | 0.00 | 4.19 | 0.00 | 73 | 1020.2 |
| 20260502161931 | 18 | 15 | 4.8 | 16.1 | 0.00 | 4.34 | 0.00 | 78 | 1020.2 |
| 20260502161159 | 17 | 0 | 4.8 | 16.1 | 0.00 | 4.52 | 0.00 | 83 | 1020.2 |
| 20260502160656 | 17 | 0 | 3.2 | 12.9 | 0.00 | 4.65 | 0.00 | 85 | 1020.2 |
| 20260502160200 | 17 | 36 | 3.2 | 19.3 | 0.00 | 4.67 | 0.00 | 86 | 1020.3 |
| 20260502152200 | 15 | 355 | 6.4 | 14.5 | 0.00 | 4.67 | 0.00 | 91 | 1020.2 |
| 20260502151657 | 15 | 319 | 3.2 | 19.3 | 0.00 | 4.67 | 0.00 | 91 | 1020.2 |
| 20260502151158 | 15 | 63 | 3.2 | 19.3 | 0.00 | 4.67 | 0.00 | 91 | 1020.1 |
| 20260502150659 | 15 | 344 | 4.8 | 19.3 | 0.00 | 4.67 | 0.00 | 91 | 1020.2 |
| 20260502150157 | 15 | 66 | 4.8 | 19.3 | 0.00 | 4.67 | 0.00 | 91 | 1020.3 |
| 20260502130647 | 12 | 335 | 3.2 | 11.3 | 0.00 | 4.88 | 0.00 | 91 | 1019.0 |
| 20260502130413 | 12 | 321 | 1.6 | 8.0 | 0.00 | 4.88 | 0.00 | 91 | 1018.8 |
| 20260502123641 | 12 | 43 | 1.6 | 9.7 | 0.00 | 4.90 | 0.00 | 91 | 1018.6 |
| 20260502123138 | 12 | 342 | 1.6 | 9.7 | 0.00 | 4.90 | 0.00 | 91 | 1018.5 |
| 20260502122639 | 12 | 307 | 3.2 | 11.3 | 0.00 | 4.90 | 0.00 | 91 | 1018.4 |
| 20260502122138 | 12 | 347 | 3.2 | 11.3 | 0.00 | 4.90 | 0.00 | 91 | 1018.3 |
| 20260502121640 | 12 | 24 | 1.6 | 6.4 | 0.00 | 4.90 | 0.00 | 91 | 1018.2 |
| 20260502121133 | 12 | 51 | 1.6 | 6.4 | 0.00 | 4.90 | 0.00 | 91 | 1018.1 |
| 20260502120636 | 12 | 355 | 1.6 | 6.4 | 0.00 | 4.90 | 0.00 | 91 | 1018.1 |
| 20260502120132 | 12 | 22 | 1.6 | 6.4 | 0.00 | 4.90 | 0.00 | 91 | 1018.1 |
| 20260502115903 | 12 | 329 | 1.6 | 4.8 | 0.00 | 4.90 | 0.00 | 91 | 1018.1 |
| 20260502115136 | 12 | 327 | 0.0 | 4.8 | 0.00 | 4.90 | 0.00 | 91 | 1017.9 |
| 20260502115132 | 12 | 329 | 1.6 | 4.8 | 0.00 | 4.90 | 0.00 | 91 | 1018.0 |
| 20260502114129 | 12 | 338 | 0.0 | 4.8 | 0.00 | 4.90 | 0.00 | 91 | 1018.0 |
| 20260502113903 | 12 | 338 | 0.0 | 8.0 | 0.00 | 4.90 | 0.00 | 91 | 1018.1 |
| 20260502113359 | 12 | 338 | 0.0 | 8.0 | 0.00 | 4.90 | 0.00 | 91 | 1018.1 |
| 20260502112630 | 12 | 338 | 1.6 | 8.0 | 0.00 | 4.90 | 0.00 | 91 | 1018.0 |
| 20260502112123 | 12 | 338 | 1.6 | 8.0 | 0.00 | 4.90 | 0.00 | 91 | 1017.8 |
| 20260502111625 | 12 | 342 | 1.6 | 6.4 | 0.00 | 4.90 | 0.00 | 91 | 1017.8 |
| 20260502111112 | 12 | 342 | 1.6 | 6.4 | 0.00 | 4.90 | 0.00 | 91 | 1017.7 |
| 20260502110613 | 12 | 11 | 1.6 | 6.4 | 0.00 | 4.90 | 0.00 | 91 | 1017.6 |
| 20260502110115 | 12 | 355 | 3.2 | 8.0 | 0.00 | 4.90 | 0.00 | 91 | 1017.4 |
| 20260502105612 | 12 | 9 | 3.2 | 8.0 | 0.00 | 4.90 | 0.00 | 91 | 1017.4 |
| 20260502105104 | 12 | 5 | 1.6 | 8.0 | 0.00 | 4.90 | 0.00 | 91 | 1017.3 |
| 20260502104603 | 12 | 30 | 3.2 | 8.0 | 0.00 | 4.93 | 0.00 | 91 | 1017.3 |
| 20260502104100 | 12 | 335 | 3.2 | 8.0 | 0.00 | 4.93 | 0.00 | 91 | 1017.2 |
| 20260502103602 | 12 | 14 | 1.6 | 6.4 | 0.00 | 4.93 | 0.00 | 91 | 1017.1 |
| 20260502103557 | 12 | 23 | 1.6 | 6.4 | 0.00 | 4.93 | 0.00 | 91 | 1017.1 |
| 20260502102550 | 12 | 26 | 3.2 | 8.0 | 0.00 | 4.93 | 0.00 | 91 | 1017.1 |
| 20260502102052 | 12 | 331 | 1.6 | 8.0 | 0.00 | 4.95 | 0.00 | 91 | 1017.1 |
| 20260502101548 | 12 | 313 | 1.6 | 6.4 | 0.00 | 4.98 | 0.00 | 91 | 1017.1 |
| 20260502101046 | 12 | 312 | 0.0 | 6.4 | 0.00 | 4.98 | 0.00 | 91 | 1016.8 |
| 20260502100552 | 12 | 37 | 1.6 | 6.4 | 0.00 | 5.00 | 0.00 | 91 | 1016.6 |
| 20260502100546 | 12 | 27 | 0.0 | 3.2 | 0.00 | 5.00 | 0.00 | 91 | 1016.8 |
| 20260502091033 | 13 | 67 | 3.2 | 9.7 | 0.00 | 5.16 | 0.00 | 91 | 1016.0 |
| 20260502090535 | 13 | 36 | 3.2 | 8.0 | 0.00 | 5.16 | 0.00 | 91 | 1015.9 |
| 20260502071515 | 13 | 334 | 1.6 | 9.7 | 0.00 | 5.31 | 0.00 | 91 | 1015.6 |
| 20260502071018 | 13 | 28 | 3.2 | 9.7 | 0.00 | 5.33 | 0.00 | 91 | 1015.7 |
| 20260502070517 | 13 | 38 | 4.8 | 9.7 | 0.00 | 5.33 | 0.00 | 91 | 1015.7 |
| 20260502070016 | 13 | 53 | 3.2 | 12.9 | 0.00 | 5.36 | 0.00 | 91 | 1015.8 |
| 20260502065514 | 13 | 22 | 3.2 | 12.9 | 0.00 | 5.36 | 0.00 | 91 | 1015.8 |
| 20260502065249 | 13 | 327 | 4.8 | 12.9 | 0.00 | 5.36 | 0.00 | 91 | 1015.8 |
| 20260502064516 | 13 | 306 | 4.8 | 12.9 | 0.00 | 5.36 | 0.00 | 91 | 1015.8 |
| 20260502064010 | 13 | 259 | 3.2 | 11.3 | 0.00 | 5.36 | 0.00 | 91 | 1015.7 |
| 20260502063740 | 13 | 18 | 3.2 | 12.9 | 0.00 | 5.36 | 0.00 | 91 | 1015.6 |
| 20260502063013 | 13 | 21 | 3.2 | 12.9 | 0.00 | 5.36 | 0.00 | 91 | 1015.5 |
| 20260502062509 | 13 | 30 | 3.2 | 16.1 | 0.00 | 5.36 | 0.00 | 91 | 1015.4 |
| 20260502062012 | 13 | 0 | 3.2 | 16.1 | 0.00 | 5.36 | 0.00 | 91 | 1015.4 |
| 20260502061508 | 13 | 0 | 3.2 | 12.9 | 0.00 | 5.36 | 0.00 | 91 | 1015.4 |
| 20260502061016 | 13 | 36 | 4.8 | 16.1 | 0.00 | 5.38 | 0.00 | 91 | 1015.3 |
| 20260502061008 | 13 | 24 | 4.8 | 12.9 | 0.00 | 5.36 | 0.00 | 91 | 1015.3 |
| 20260502060007 | 13 | 5 | 4.8 | 16.1 | 0.00 | 5.38 | 0.00 | 91 | 1015.2 |
| 20260502055504 | 13 | 32 | 3.2 | 12.9 | 0.00 | 5.38 | 0.00 | 91 | 1015.2 |
| 20260502055235 | 13 | 51 | 3.2 | 16.1 | 0.00 | 5.38 | 0.00 | 91 | 1015.2 |
| 20260502054508 | 13 | 28 | 3.2 | 16.1 | 0.00 | 5.38 | 0.00 | 91 | 1015.3 |
| 20260502054005 | 13 | 18 | 3.2 | 16.1 | 0.00 | 5.41 | 0.00 | 91 | 1015.3 |
| 20260502053506 | 13 | 355 | 3.2 | 16.1 | 0.00 | 5.44 | 0.00 | 91 | 1015.3 |
| 20260502053004 | 13 | 315 | 3.2 | 11.3 | 0.00 | 5.49 | 0.00 | 91 | 1015.2 |
| 20260502052504 | 13 | 19 | 3.2 | 11.3 | 0.00 | 5.59 | 0.00 | 91 | 1015.3 |
| 20260502052003 | 13 | 34 | 3.2 | 11.3 | 0.00 | 5.64 | 0.00 | 91 | 1015.3 |
| 20260502051502 | 13 | 38 | 3.2 | 11.3 | 0.00 | 5.64 | 0.00 | 91 | 1015.3 |
| 20260502051231 | 13 | 302 | 3.2 | 9.7 | 0.00 | 5.64 | 0.00 | 91 | 1015.2 |
| 20260502050502 | 13 | 41 | 3.2 | 11.3 | 0.00 | 5.64 | 0.00 | 91 | 1015.1 |
| 20260502045958 | 13 | 18 | 3.2 | 11.3 | 0.00 | 5.64 | 5.64 | 91 | 1015.1 |
| 20260502045457 | 13 | 5 | 3.2 | 19.3 | 0.00 | 5.64 | 5.64 | 91 | 1015.1 |
| 20260502044955 | 13 | 355 | 3.2 | 19.3 | 0.00 | 5.64 | 5.64 | 91 | 1015.1 |
| 20260502044456 | 13 | 26 | 4.8 | 17.7 | 0.03 | 5.64 | 5.64 | 91 | 1015.3 |
| 20260502043954 | 13 | 327 | 3.2 | 12.9 | 0.03 | 5.64 | 5.64 | 91 | 1015.3 |
| 20260502043454 | 13 | 55 | 3.2 | 12.9 | 0.03 | 5.64 | 5.64 | 91 | 1015.4 |
| 20260502042953 | 14 | 44 | 3.2 | 12.9 | 0.03 | 5.64 | 5.64 | 91 | 1015.4 |
| 20260502042453 | 14 | 39 | 3.2 | 12.9 | 0.03 | 5.64 | 5.64 | 91 | 1015.3 |
| 20260502041953 | 14 | 13 | 4.8 | 14.5 | 0.03 | 5.64 | 5.64 | 91 | 1015.3 |
| 20260502041454 | 14 | 17 | 4.8 | 17.7 | 0.03 | 5.64 | 5.64 | 91 | 1015.2 |
| 20260502041226 | 14 | 56 | 4.8 | 17.7 | 0.03 | 5.64 | 5.64 | 91 | 1015.1 |
| 20260502040726 | 14 | 336 | 4.8 | 14.5 | 0.03 | 5.64 | 5.64 | 91 | 1015.1 |
| 20260502035951 | 14 | 5 | 4.8 | 14.5 | 0.03 | 5.64 | 5.64 | 91 | 1015.3 |
| 20260502035450 | 14 | 17 | 4.8 | 14.5 | 0.03 | 5.64 | 5.64 | 91 | 1015.2 |
| 20260502034949 | 14 | 15 | 4.8 | 14.5 | 0.03 | 5.64 | 5.64 | 91 | 1015.3 |
| 20260502034447 | 14 | 346 | 4.8 | 16.1 | 0.00 | 5.61 | 5.61 | 91 | 1015.0 |
| 20260502033947 | 14 | 33 | 4.8 | 16.1 | 0.00 | 5.61 | 5.61 | 91 | 1014.9 |
| 20260502033447 | 14 | 30 | 3.2 | 16.1 | 0.00 | 5.61 | 5.61 | 91 | 1014.8 |
| 20260502032950 | 14 | 21 | 4.8 | 16.1 | 0.03 | 5.61 | 5.61 | 91 | 1014.8 |
| 20260502032945 | 14 | 64 | 4.8 | 16.1 | 0.03 | 5.61 | 5.61 | 91 | 1014.8 |
| 20260502031945 | 14 | 5 | 4.8 | 16.1 | 0.03 | 5.61 | 5.61 | 91 | 1014.6 |
| 20260502031444 | 14 | 19 | 4.8 | 12.9 | 0.03 | 5.61 | 5.61 | 91 | 1014.3 |
| 20260502030946 | 14 | 38 | 4.8 | 12.9 | 0.03 | 5.61 | 5.61 | 91 | 1014.3 |
| 20260502030442 | 14 | 12 | 3.2 | 14.5 | 0.05 | 5.61 | 5.61 | 91 | 1014.2 |
| 20260502030215 | 14 | 5 | 3.2 | 14.5 | 0.05 | 5.61 | 5.61 | 91 | 1013.5 |
| 20260502025442 | 14 | 0 | 4.8 | 14.5 | 0.05 | 5.61 | 5.61 | 91 | 1013.5 |
| 20260502024943 | 15 | 355 | 4.8 | 16.1 | 0.08 | 5.61 | 5.61 | 91 | 1013.5 |
| 20260502024444 | 15 | 51 | 4.8 | 16.1 | 0.08 | 5.61 | 5.61 | 91 | 1013.6 |
| 20260502023940 | 15 | 240 | 4.8 | 16.1 | 0.08 | 5.61 | 5.61 | 91 | 1013.5 |
| 20260502023436 | 15 | 21 | 3.2 | 14.5 | 0.08 | 5.61 | 5.61 | 91 | 1013.4 |
| 20260502022934 | 15 | 51 | 3.2 | 11.3 | 0.05 | 5.59 | 5.59 | 91 | 1013.4 |
| 20260502022435 | 15 | 0 | 4.8 | 14.5 | 0.08 | 5.59 | 5.59 | 91 | 1013.3 |
| 20260502021930 | 15 | 42 | 4.8 | 14.5 | 0.08 | 5.59 | 5.59 | 91 | 1013.2 |
| 20260502021430 | 15 | 14 | 3.2 | 14.5 | 0.10 | 5.59 | 5.59 | 91 | 1013.5 |
| 20260502020931 | 15 | 36 | 3.2 | 8.0 | 0.10 | 5.59 | 5.59 | 91 | 1013.6 |
| 20260502020430 | 15 | 19 | 3.2 | 9.7 | 0.08 | 5.56 | 5.56 | 91 | 1013.3 |
| 20260502015932 | 15 | 33 | 3.2 | 11.3 | 0.10 | 5.56 | 5.56 | 91 | 1013.2 |
| 20260502015431 | 15 | 55 | 3.2 | 11.3 | 0.10 | 5.56 | 5.56 | 91 | 1013.1 |
| 20260502014929 | 15 | 48 | 3.2 | 9.7 | 0.08 | 5.54 | 5.54 | 91 | 1013.3 |
| 20260502014427 | 15 | 338 | 3.2 | 14.5 | 0.08 | 5.54 | 5.54 | 91 | 1013.3 |
| 20260502013926 | 15 | 29 | 4.8 | 14.5 | 0.08 | 5.54 | 5.54 | 91 | 1013.1 |
| 20260502013429 | 15 | 325 | 3.2 | 14.5 | 0.10 | 5.54 | 5.54 | 91 | 1012.8 |
| 20260502013424 | 15 | 355 | 3.2 | 14.5 | 0.08 | 5.54 | 5.54 | 91 | 1012.8 |
| 20260502012423 | 15 | 13 | 3.2 | 14.5 | 0.08 | 5.51 | 5.51 | 91 | 1012.5 |
| 20260502011921 | 15 | 321 | 3.2 | 14.5 | 0.10 | 5.51 | 5.51 | 91 | 1012.4 |
| 20260502011421 | 15 | 336 | 4.8 | 14.5 | 0.08 | 5.49 | 5.49 | 91 | 1012.2 |
| 20260502010922 | 15 | 19 | 4.8 | 14.5 | 0.10 | 5.49 | 5.49 | 91 | 1012.2 |
| 20260502010418 | 15 | 13 | 4.8 | 14.5 | 0.15 | 5.49 | 5.49 | 91 | 1012.3 |
| 20260502005918 | 15 | 304 | 3.2 | 14.5 | 0.20 | 5.46 | 5.46 | 91 | 1012.7 |
| 20260502005416 | 15 | 321 | 3.2 | 12.9 | 0.28 | 5.46 | 5.46 | 91 | 1012.7 |
| 20260502004914 | 15 | 309 | 4.8 | 19.3 | 0.30 | 5.46 | 5.46 | 91 | 1012.3 |
| 20260502004415 | 15 | 337 | 3.2 | 19.3 | 0.30 | 5.46 | 5.46 | 91 | 1011.7 |
| 20260502003915 | 15 | 11 | 3.2 | 11.3 | 0.33 | 5.46 | 5.46 | 91 | 1011.3 |
| 20260502003410 | 15 | 346 | 3.2 | 6.4 | 0.33 | 5.46 | 5.46 | 91 | 1011.1 |
| 20260502002911 | 15 | 13 | 4.8 | 14.5 | 0.33 | 5.44 | 5.44 | 91 | 1011.2 |
| 20260502002413 | 15 | 323 | 4.8 | 14.5 | 0.33 | 5.44 | 5.44 | 91 | 1011.2 |
| 20260502001911 | 16 | 18 | 3.2 | 12.9 | 0.33 | 5.41 | 5.41 | 91 | 1011.2 |
| 20260502001403 | 16 | 23 | 4.8 | 12.9 | 0.36 | 5.41 | 5.41 | 91 | 1011.4 |
| 20260502000904 | 16 | 313 | 3.2 | 12.9 | 0.33 | 5.38 | 5.38 | 91 | 1011.5 |
| 20260502000405 | 16 | 14 | 3.2 | 12.9 | 0.28 | 5.33 | 5.33 | 91 | 1011.3 |
| 20260501235902 | 16 | 304 | 4.8 | 12.9 | 0.20 | 5.26 | 5.28 | 91 | 1011.4 |
| 20260501235402 | 16 | 40 | 3.2 | 12.9 | 0.13 | 5.18 | 5.21 | 91 | 1011.5 |
| 20260501234903 | 16 | 0 | 3.2 | 12.9 | 0.13 | 5.16 | 5.16 | 91 | 1011.5 |
| 20260501234631 | 16 | 55 | 4.8 | 14.5 | 0.13 | 5.16 | 5.16 | 91 | 1011.3 |
| 20260501233901 | 16 | 32 | 4.8 | 14.5 | 0.10 | 5.13 | 5.13 | 91 | 1010.5 |
| 20260501233358 | 16 | 60 | 3.2 | 12.9 | 0.10 | 5.13 | 5.13 | 91 | 1010.1 |
| 20260501233132 | 16 | 350 | 3.2 | 14.5 | 0.08 | 5.11 | 5.11 | 91 | 1010.2 |
| 20260501232358 | 16 | 30 | 3.2 | 14.5 | 0.08 | 5.11 | 5.11 | 91 | 1010.1 |
| 20260501232130 | 16 | 0 | 3.2 | 14.5 | 0.05 | 5.08 | 5.08 | 91 | 1010.3 |
| 20260501231400 | 16 | 74 | 4.8 | 14.5 | 0.03 | 5.05 | 5.05 | 91 | 1010.7 |
| 20260501230854 | 16 | 22 | 3.2 | 12.9 | 0.05 | 5.05 | 5.05 | 91 | 1011.1 |
| 20260501230352 | 16 | 334 | 3.2 | 20.9 | 0.05 | 5.05 | 5.05 | 91 | 1010.7 |
| 20260501225854 | 16 | 71 | 3.2 | 20.9 | 0.08 | 5.05 | 5.05 | 91 | 1010.4 |
| 20260501225349 | 16 | 9 | 3.2 | 12.9 | 0.13 | 5.05 | 5.05 | 91 | 1010.4 |
| 20260501224851 | 16 | 22 | 3.2 | 8.0 | 0.18 | 5.03 | 5.03 | 91 | 1010.3 |
| 20260501224352 | 16 | 5 | 3.2 | 8.0 | 0.23 | 5.03 | 5.03 | 91 | 1009.8 |
| 20260501223851 | 16 | 0 | 3.2 | 6.4 | 0.28 | 5.03 | 5.03 | 91 | 1009.9 |
| 20260501223348 | 16 | 38 | 3.2 | 6.4 | 0.36 | 5.03 | 5.03 | 91 | 1010.1 |
| 20260501222850 | 16 | 52 | 3.2 | 11.3 | 0.43 | 5.03 | 5.03 | 91 | 1009.8 |
| 20260501222342 | 16 | 50 | 3.2 | 11.3 | 0.58 | 5.03 | 5.03 | 91 | 1009.7 |
| 20260501222114 | 17 | 22 | 3.2 | 12.9 | 0.61 | 5.03 | 5.03 | 91 | 1009.7 |
| 20260501221343 | 17 | 59 | 3.2 | 12.9 | 0.64 | 5.03 | 5.03 | 91 | 1010.0 |
| 20260501220842 | 17 | 26 | 3.2 | 9.7 | 0.61 | 5.00 | 5.00 | 91 | 1010.2 |
| 20260501220343 | 17 | 5 | 3.2 | 12.9 | 0.61 | 5.00 | 5.00 | 91 | 1010.1 |
| 20260501220115 | 17 | 355 | 3.2 | 12.9 | 0.61 | 4.98 | 4.98 | 91 | 1010.3 |
| 20260501215341 | 17 | 355 | 3.2 | 11.3 | 0.56 | 4.93 | 4.93 | 91 | 1010.5 |
| 20260501214841 | 17 | 65 | 3.2 | 12.9 | 0.51 | 4.85 | 4.85 | 91 | 1010.3 |
| 20260501214343 | 17 | 65 | 4.8 | 12.9 | 0.51 | 4.80 | 4.80 | 91 | 1010.8 |
| 20260501214109 | 17 | 108 | 4.8 | 12.9 | 0.51 | 4.75 | 4.75 | 91 | 1010.4 |
| 20260501213337 | 17 | 0 | 3.2 | 12.9 | 0.51 | 4.67 | 4.70 | 91 | 1010.2 |
| 20260501212838 | 17 | 348 | 3.2 | 9.7 | 0.43 | 4.55 | 4.57 | 91 | 1010.8 |
| 20260501212336 | 17 | 331 | 3.2 | 9.7 | 0.38 | 4.45 | 4.45 | 91 | 1010.4 |
| 20260501211836 | 17 | 329 | 1.6 | 8.0 | 0.41 | 4.39 | 4.42 | 91 | 1010.6 |
| 20260501211336 | 17 | 305 | 3.2 | 17.7 | 0.43 | 4.39 | 4.39 | 91 | 1010.6 |
| 20260501211105 | 17 | 342 | 3.2 | 17.7 | 0.46 | 4.39 | 4.39 | 91 | 1010.2 |
| 20260501210336 | 17 | 20 | 4.8 | 17.7 | 0.46 | 4.39 | 4.39 | 91 | 1009.5 |
| 20260501205832 | 17 | 9 | 4.8 | 17.7 | 0.43 | 4.37 | 4.37 | 91 | 1008.9 |
| 20260501205331 | 17 | 39 | 3.2 | 14.5 | 0.43 | 4.37 | 4.37 | 91 | 1008.9 |
| 20260501204832 | 17 | 304 | 3.2 | 9.7 | 0.41 | 4.34 | 4.34 | 91 | 1008.7 |
| 20260501204331 | 17 | 29 | 4.8 | 9.7 | 0.38 | 4.29 | 4.29 | 91 | 1008.7 |
| 20260501203830 | 17 | 40 | 3.2 | 9.7 | 0.30 | 4.22 | 4.22 | 91 | 1008.6 |
| 20260501203330 | 17 | 67 | 1.6 | 6.4 | 0.28 | 4.17 | 4.17 | 91 | 1009.7 |
| 20260501202830 | 17 | 12 | 1.6 | 6.4 | 0.25 | 4.11 | 4.11 | 91 | 1010.0 |
| 20260501202331 | 17 | 32 | 3.2 | 8.0 | 0.23 | 4.06 | 4.06 | 91 | 1009.8 |
| 20260501201829 | 17 | 33 | 1.6 | 8.0 | 0.23 | 3.99 | 4.01 | 91 | 1009.7 |
| 20260501201328 | 17 | 318 | 1.6 | 6.4 | 0.23 | 3.96 | 3.96 | 91 | 1009.8 |
| 20260501200824 | 17 | 350 | 3.2 | 12.9 | 0.20 | 3.94 | 3.94 | 91 | 1009.4 |
| 20260501200324 | 17 | 355 | 3.2 | 12.9 | 0.23 | 3.94 | 3.94 | 91 | 1008.6 |
| 20260501200056 | 17 | 22 | 3.2 | 8.0 | 0.23 | 3.94 | 3.94 | 91 | 1008.4 |
| 20260501195556 | 17 | 37 | 1.6 | 6.4 | 0.25 | 3.94 | 3.94 | 91 | 1008.7 |
| 20260501194825 | 17 | 355 | 1.6 | 6.4 | 0.28 | 3.94 | 3.94 | 91 | 1008.7 |
| 20260501194324 | 17 | 355 | 3.2 | 8.0 | 0.33 | 3.91 | 3.91 | 91 | 1008.3 |
| 20260501193824 | 17 | 11 | 3.2 | 8.0 | 0.79 | 3.91 | 3.91 | 91 | 1008.6 |
| 20260501193325 | 17 | 28 | 3.2 | 8.0 | 1.35 | 3.89 | 3.89 | 91 | 1008.1 |
| 20260501193055 | 17 | 341 | 3.2 | 8.0 | 1.35 | 3.86 | 3.89 | 91 | 1008.9 |
| 20260501192324 | 17 | 341 | 1.6 | 6.4 | 1.32 | 3.84 | 3.84 | 91 | 1008.7 |
| 20260501191824 | 17 | 47 | 1.6 | 8.0 | 1.27 | 3.76 | 3.76 | 91 | 1008.5 |
| 20260501191325 | 17 | 329 | 3.2 | 8.0 | 1.27 | 3.73 | 3.73 | 91 | 1009.2 |
| 20260501190823 | 17 | 333 | 3.2 | 8.0 | 1.40 | 3.73 | 3.73 | 91 | 1009.2 |
| 20260501190324 | 17 | 51 | 3.2 | 9.7 | 1.75 | 3.71 | 3.71 | 91 | 1008.7 |
| 20260501185825 | 17 | 45 | 3.2 | 9.7 | 1.91 | 3.71 | 3.71 | 91 | 1008.2 |
| 20260501185324 | 17 | 35 | 3.2 | 6.4 | 1.91 | 3.68 | 3.68 | 91 | 1008.3 |
| 20260501184823 | 17 | 67 | 3.2 | 9.7 | 1.91 | 3.66 | 3.66 | 91 | 1008.4 |
| 20260501184554 | 17 | 137 | 3.2 | 9.7 | 1.85 | 3.58 | 3.58 | 91 | 1009.1 |
| 20260501184054 | 17 | 317 | 3.2 | 11.3 | 1.47 | 3.12 | 3.12 | 91 | 1009.2 |
| 20260501183325 | 17 | 85 | 4.8 | 11.3 | 0.91 | 2.54 | 2.57 | 91 | 1009.2 |
| 20260501182825 | 17 | 219 | 4.8 | 11.3 | 0.89 | 2.51 | 2.51 | 91 | 1010.7 |
| 20260501182323 | 17 | 254 | 3.2 | 11.3 | 0.89 | 2.51 | 2.51 | 91 | 1008.6 |